Hourly Weather Bolshie Gorki

Today, 23 July, Friday

Time Temperature Precipitation Wind Pressure Humidity
00:00 +14°C° 0 mm 2 mps 744 mmHg 75%
01:00 +13°C° 0 mm 2 mps 744 mmHg 75%
02:00 +13°C° 0 mm 3 mps 744 mmHg 73%
03:00 +13°C° 0.1 mm 3 mps 743 mmHg 73%
04:00 +14°C° 0.1 mm 3 mps 743 mmHg 73%
05:00 +14°C° 0.1 mm 4 mps 743 mmHg 74%
06:00 +15°C° 0.1 mm 4 mps 743 mmHg 72%
07:00 +17°C° 0.1 mm 4 mps 742 mmHg 71%
08:00 +17°C° 0 mm 5 mps 742 mmHg 70%
09:00 +19°C° 0.3 mm 5 mps 742 mmHg 66%
10:00 +20°C° 0.3 mm 5 mps 742 mmHg 62%
11:00 +21°C° 0.3 mm 6 mps 742 mmHg 58%
12:00 +21°C° 0.2 mm 5 mps 742 mmHg 55%
13:00 +21°C° 0.2 mm 5 mps 742 mmHg 53%
14:00 +22°C° 0.2 mm 5 mps 742 mmHg 50%
15:00 +21°C° 0.1 mm 5 mps 742 mmHg 53%
16:00 +20°C° 0.1 mm 5 mps 743 mmHg 57%
17:00 +19°C° 0.1 mm 4 mps 743 mmHg 61%
18:00 +18°C° 0 mm 3 mps 743 mmHg 63%
19:00 +17°C° 0 mm 3 mps 744 mmHg 66%
20:00 +16°C° 0 mm 2 mps 744 mmHg 68%
21:00 +15°C° 0 mm 2 mps 744 mmHg 72%
22:00 +14°C° 0 mm 2 mps 744 mmHg 75%
23:00 +13°C° 0 mm 2 mps 745 mmHg 79%

Tomorrow, 24 July, Saturday

Time Temperature Precipitation Wind Pressure Humidity
00:00 +12°C° 0 mm 2 mps 745 mmHg 78%
01:00 +12°C° 0 mm 2 mps 745 mmHg 78%
02:00 +12°C° 0 mm 2 mps 746 mmHg 78%
03:00 +12°C° 0 mm 2 mps 746 mmHg 78%
04:00 +12°C° 0 mm 2 mps 747 mmHg 78%
05:00 +12°C° 0 mm 2 mps 747 mmHg 79%
06:00 +13°C° 0 mm 2 mps 747 mmHg 71%
07:00 +14°C° 0 mm 3 mps 748 mmHg 63%
08:00 +17°C° 0 mm 3 mps 748 mmHg 56%
09:00 +18°C° 0 mm 3 mps 748 mmHg 51%
10:00 +19°C° 0 mm 3 mps 748 mmHg 46%
11:00 +20°C° 0 mm 3 mps 749 mmHg 41%
12:00 +20°C° 0 mm 2 mps 749 mmHg 40%
13:00 +20°C° 0 mm 2 mps 749 mmHg 39%
14:00 +21°C° 0 mm 1 mps 749 mmHg 39%
15:00 +21°C° 0 mm 1 mps 749 mmHg 40%
16:00 +22°C° 0 mm 1 mps 749 mmHg 40%
17:00 +22°C° 0 mm 1 mps 750 mmHg 41%
18:00 +20°C° 0 mm 1 mps 750 mmHg 46%
19:00 +19°C° 0 mm 1 mps 750 mmHg 51%
20:00 +16°C° 0 mm 1 mps 750 mmHg 56%
21:00 +16°C° 0 mm 1 mps 751 mmHg 57%
22:00 +16°C° 0 mm 2 mps 751 mmHg 57%
23:00 +15°C° 0 mm 2 mps 751 mmHg 58%

Day after tomorrow, 25 July, Sunday

Time Temperature Precipitation Wind Pressure Humidity
00:00 +15°C° 0 mm 2 mps 751 mmHg 59%
01:00 +15°C° 0 mm 1 mps 751 mmHg 60%
02:00 +15°C° 0 mm 1 mps 752 mmHg 61%
03:00 +15°C° 0 mm 1 mps 752 mmHg 63%
04:00 +15°C° 0 mm 1 mps 752 mmHg 65%
05:00 +15°C° 0 mm 1 mps 752 mmHg 67%
06:00 +16°C° 0 mm 1 mps 753 mmHg 62%
07:00 +18°C° 0 mm 1 mps 753 mmHg 58%
08:00 +20°C° 0 mm 1 mps 753 mmHg 54%
09:00 +21°C° 0 mm 1 mps 753 mmHg 48%
10:00 +23°C° 0 mm 1 mps 753 mmHg 42%
11:00 +25°C° 0 mm 1 mps 753 mmHg 36%
12:00 +25°C° 0 mm 1 mps 753 mmHg 34%
13:00 +26°C° 0 mm 1 mps 753 mmHg 33%
14:00 +26°C° 0 mm 1 mps 753 mmHg 31%
15:00 +26°C° 0 mm 1 mps 753 mmHg 33%
16:00 +25°C° 0 mm 1 mps 753 mmHg 35%
17:00 +25°C° 0 mm 1 mps 753 mmHg 37%
18:00 +23°C° 0 mm 1 mps 754 mmHg 43%
19:00 +21°C° 0 mm 1 mps 754 mmHg 50%
20:00 +19°C° 0 mm 1 mps 754 mmHg 56%
21:00 +18°C° 0 mm 1 mps 754 mmHg 57%
22:00 +18°C° 0 mm 1 mps 754 mmHg 57%
23:00 +16°C° 0 mm 1 mps 755 mmHg 57%

26 July, Monday

Time Temperature Precipitation Wind Pressure Humidity
00:00 +18°C° 0 mm 1 mps 755 mmHg 57%
01:00 +18°C° 0 mm 1 mps 755 mmHg 57%
02:00 +17°C° 0 mm 2 mps 755 mmHg 57%
03:00 +17°C° 0 mm 2 mps 755 mmHg 60%
04:00 +16°C° 0 mm 2 mps 755 mmHg 63%
05:00 +16°C° 0 mm 2 mps 755 mmHg 66%
06:00 +18°C° 0 mm 2 mps 755 mmHg 61%
07:00 +20°C° 0 mm 2 mps 755 mmHg 56%
08:00 +23°C° 0 mm 2 mps 755 mmHg 51%
09:00 +24°C° 0 mm 2 mps 755 mmHg 46%
10:00 +26°C° 0 mm 2 mps 755 mmHg 42%
11:00 +27°C° 0 mm 2 mps 755 mmHg 38%
12:00 +27°C° 0 mm 2 mps 755 mmHg 37%
13:00 +28°C° 0 mm 2 mps 755 mmHg 36%
14:00 +28°C° 0 mm 2 mps 755 mmHg 36%
15:00 +27°C° 0 mm 2 mps 755 mmHg 39%
16:00 +27°C° 0 mm 2 mps 755 mmHg 43%
17:00 +26°C° 0 mm 2 mps 754 mmHg 46%
18:00 +25°C° 0 mm 2 mps 755 mmHg 52%
19:00 +23°C° 0 mm 2 mps 755 mmHg 58%
20:00 +20°C° 0 mm 2 mps 755 mmHg 64%
21:00 +20°C° 0 mm 2 mps 755 mmHg 65%
22:00 +19°C° 0 mm 2 mps 755 mmHg 67%
23:00 +18°C° 0 mm 2 mps 755 mmHg 68%

27 July, Tuesday

Time Temperature Precipitation Wind Pressure Humidity
00:00 +18°C° 0 mm 2 mps 755 mmHg 70%
01:00 +18°C° 0 mm 2 mps 755 mmHg 71%
02:00 +18°C° 0 mm 2 mps 755 mmHg 72%
03:00 +18°C° 0 mm 2 mps 755 mmHg 73%
04:00 +19°C° 0 mm 1 mps 755 mmHg 74%
05:00 +19°C° 0 mm 1 mps 755 mmHg 75%
06:00 +21°C° 0 mm 1 mps 755 mmHg 69%
07:00 +21°C° 0 mm 2 mps 755 mmHg 64%
08:00 +24°C° 0 mm 2 mps 755 mmHg 58%
09:00 +26°C° 0 mm 2 mps 755 mmHg 52%
10:00 +27°C° 0 mm 2 mps 755 mmHg 46%
11:00 +29°C° 0 mm 2 mps 755 mmHg 40%
12:00 +29°C° 0 mm 2 mps 754 mmHg 40%
13:00 +29°C° 0 mm 2 mps 754 mmHg 39%
14:00 +29°C° 0 mm 2 mps 754 mmHg 38%
15:00 +28°C° 0 mm 2 mps 754 mmHg 41%
16:00 +27°C° 0 mm 2 mps 754 mmHg 44%
17:00 +27°C° 0 mm 1 mps 753 mmHg 47%
18:00 +25°C° 0 mm 2 mps 753 mmHg 50%
19:00 +24°C° 0 mm 2 mps 753 mmHg 53%
20:00 +21°C° 0 mm 2 mps 753 mmHg 57%
21:00 +21°C° 0 mm 2 mps 753 mmHg 59%
22:00 +20°C° 0 mm 2 mps 753 mmHg 62%
23:00 +19°C° 0 mm 2 mps 753 mmHg 64%

28 July, Wednesday

Time Temperature Precipitation Wind Pressure Humidity
00:00 +19°C° 0 mm 2 mps 753 mmHg 66%
01:00 +18°C° 0 mm 2 mps 752 mmHg 68%
02:00 +17°C° 0 mm 2 mps 752 mmHg 70%
03:00 +17°C° 0 mm 2 mps 752 mmHg 70%
04:00 +17°C° 0 mm 2 mps 752 mmHg 70%
05:00 +18°C° 0 mm 2 mps 752 mmHg 71%
06:00 +20°C° 0 mm 2 mps 752 mmHg 65%
07:00 +22°C° 0 mm 3 mps 751 mmHg 59%
08:00 +26°C° 0 mm 3 mps 751 mmHg 53%
09:00 +26°C° 0 mm 4 mps 751 mmHg 51%
10:00 +27°C° 0 mm 4 mps 751 mmHg 48%
11:00 +28°C° 0 mm 5 mps 750 mmHg 46%
12:00 +28°C° 0 mm 5 mps 750 mmHg 48%
13:00 +27°C° 0 mm 5 mps 750 mmHg 50%
14:00 +27°C° 0 mm 5 mps 749 mmHg 52%
15:00 +26°C° 0 mm 5 mps 749 mmHg 56%
16:00 +23°C° 0 mm 5 mps 749 mmHg 60%
17:00 +22°C° 0 mm 5 mps 749 mmHg 64%
18:00 +21°C° 0 mm 5 mps 748 mmHg 65%
19:00 +20°C° 0 mm 4 mps 748 mmHg 67%
20:00 +20°C° 0 mm 4 mps 747 mmHg 68%
21:00 +19°C° 0 mm 3 mps 747 mmHg 71%
22:00 +19°C° 0 mm 3 mps 747 mmHg 74%
23:00 +19°C° 0 mm 2 mps 746 mmHg 77%
Show more

We Need Your Consent

Meteoprog and our Service Providers may store and access personal data such as cookies, device identifiers or other similar technologies on your device and process such data to personalise content and ads, as well as provide social media features and to analyse the traffic.

  • Store and/or access information on your device

    Cookies, device identifiers or other information can be stored or accessed on your device for the purposes indicated above.

  • Personalised ads and content, ad and content measurement, audience insights, and products development

    Ads and content can be personalised based on a profile. More data can be added to better personalise ads and content. Ad and content performance can be measured. Insights about the audience who saw the ads and content can be derived. Such data can be used to develop or improve user’s experience, systems and software.

By clicking ‘I Agree’ you will allow the use of indicated cookies, device identifiers, web beacons or other similar technologies. Your settings can be changed in the browser on your device.

For certain purposes, legitimate interests may be relied on, rather than consent. You can read more about this in our Privacy and Cookie Policy.